Updated19/06/2019 18:00 
 

GeoURL
free counters
Scottish Weather Network UK Weather Network Cumulus Top Weather Sites

Peebles Weather - Skymap

Raw Data, Raw Data Expanded

Ignore low humidity and Dew Point values. Something wrong with the sensor.
Daytime temperatures are in direct sunlight so may be higher than official air temperature values.
As with any other website, we log your IP address and browser type in the server logs for diagnostic reasons. Cookies are used to record visit time and gauges preferences. No personal information is stored or processed.

All times are in local time (GMT, or BST in summer) unless specified.

2019/06/19 16:50 EGPH 191650Z 27009KT 240V310 CAVOK 18/08 Q1005
21.1°C 0.0 mm 0.0 mm 0.0 mm 2.9 mph 5.4 mph 1000.8 hPa 52% X-Ray Solar Flare Level
Planetary K-Index
Planetary K-Index History
Station Warn Rain Snow Flood Wind Ltng Heat Cold Glob Moon Temp Rain 1h Rain Wed Rain 24h Wind 10m Gust Pressure Hum Proton Levels

0.249 m Waning Gibbous Comfortable F1-S F: A: Kp:0 SSN:0

SkyMap from Weather Underground


2019 06 19 18 00
Up
Click for Other Views

   
   
Star Chart courtesy: Weather Underground

SkyMap from Fourmilab


 

XHTML 1.1 | CSS